Volver al catálogo

SHUTIANYUXING-02 SHIYAN XING

ActivoCienciaSSO
NORAD 65940·PAYLOAD·🇨🇳 China
Este nombre de satélite aún no ha sido confirmado por fuentes oficiales.

Lanzado Oct 11, 2025 desde Yellow Sea Launch Area

Loading…

Próximos Pases (próximas 24 horas)

TLE

ActualizadoSource: Space-Track

Época: Sep 14, 2026, 11:25 UTC

1 65940U 25226C   26257.47636109  .00005704  00000-0  29124-3 0  9996
2 65940  97.6296 338.0889 0012968 184.2485 175.8640 15.17040108 51219

Sigue SHUTIANYUXING-02 SHIYAN XING en tiempo real con AllMySat

Download on the App Store